FW9036 Weather Reports


time (UTC)temp
F
wind
direction
speed
knots
gust
knots
rain 1hr
in
rain 24hr
in
rain mn
in
humidity
%
barometer
mb
20260905114905 78 216 0.0 0.0 0.00 0.00 0.00 95 1012.6
20260905114404 78 170 0.0 0.0 0.00 0.00 0.00 95 1012.4
20260905113904 78 31 0.0 0.9 0.00 0.00 0.00 95 1012.6
20260905113359 78 51 1.7 1.7 0.00 0.00 0.00 95 1012.2
20260905112854 78 38 0.0 1.7 0.00 0.00 0.00 95 1012.1
20260905112349 78 137 0.0 1.7 0.00 0.00 0.00 95 1012.2
20260905111844 78 297 0.0 0.0 0.00 0.00 0.00 95 1012.1
20260905111339 78 158 0.0 0.9 0.00 0.00 0.00 95 1012.3
20260905110838 78 40 0.9 1.7 0.00 0.00 0.00 95 1012.1
20260905110332 78 358 1.7 1.7 0.00 0.00 0.00 95 1012.2
20260905105828 78 238 0.0 0.9 0.00 0.00 0.00 95 1012.2
20260905105327 78 137 0.0 1.7 0.00 0.00 0.00 95 1011.9
20260905104821 78 85 0.0 0.9 0.00 0.00 0.00 95 1012.1
20260905104318 78 230 0.0 1.7 0.00 0.00 0.00 95 1011.8
20260905103817 77 205 0.0 2.6 0.00 0.00 0.00 95 1011.7
20260905103313 77 36 0.0 0.9 0.00 0.00 0.00 96 1011.7
20260905102809 77 138 0.0 0.9 0.00 0.00 0.00 96 1011.6
20260905102306 77 7 0.0 1.7 0.00 0.00 0.00 96 1011.7
20260905101804 77 25 0.0 0.9 0.00 0.00 0.00 96 1011.6
20260905101303 77 147 0.9 0.9 0.00 0.00 0.00 96 1011.5
20260905100757 77 6 0.0 0.9 0.00 0.00 0.00 96 1011.7
20260905100254 77 170 0.0 0.9 0.00 0.00 0.00 96 1011.8
20260905095753 77 13 0.0 0.0 0.00 0.00 0.00 96 1011.7
20260905095247 77 130 0.0 0.9 0.00 0.00 0.00 95 1011.7
20260905094742 77 110 0.0 1.7 0.00 0.00 0.00 95 1011.8
20260905094238 77 122 0.0 0.0 0.00 0.00 0.00 95 1012.0
20260905093736 77 150 0.0 1.7 0.00 0.00 0.00 95 1012.0
20260905093233 77 141 0.0 0.9 0.00 0.00 0.00 95 1012.0
20260905092728 77 88 0.0 0.9 0.00 0.00 0.00 95 1011.9
20260905092223 77 140 1.7 2.6 0.00 0.00 0.00 95 1011.7
20260905091722 77 111 0.0 1.7 0.00 0.00 0.00 95 1012.2
20260905091218 77 81 0.0 1.7 0.00 0.00 0.00 95 1012.0
20260905090716 77 111 0.0 1.7 0.00 0.00 0.00 95 1011.9
20260905090213 77 98 0.0 0.9 0.00 0.00 0.00 95 1012.0
20260905085712 77 78 0.0 1.7 0.00 0.00 0.00 95 1011.6
20260905085207 77 6 0.0 0.9 0.00 0.00 0.00 95 1011.8
20260905084707 77 333 0.0 0.9 0.00 0.00 0.00 95 1011.5
20260905084207 77 195 0.0 0.9 0.00 0.00 0.00 95 1011.6
20260905083701 77 155 1.7 1.7 0.00 0.00 0.00 95 1011.5
20260905083158 77 96 0.0 0.9 0.00 0.00 0.00 95 1011.5
20260905082654 77 13 0.0 1.7 0.00 0.00 0.00 94 1011.5
20260905082149 78 6 0.9 1.7 0.00 0.00 0.00 94 1011.3
20260905081649 77 193 0.9 1.7 0.00 0.00 0.00 95 1011.4
20260905081144 78 237 0.0 0.9 0.00 0.00 0.00 95 1011.4
20260905080644 78 176 0.0 0.9 0.00 0.00 0.00 95 1011.6
20260905080143 78 11 0.9 1.7 0.00 0.00 0.00 95 1011.4
20260905075643 78 296 0.0 1.7 0.00 0.00 0.00 95 1011.7
20260905075142 77 344 0.9 2.6 0.00 0.00 0.00 95 1011.2
20260905074641 77 292 1.7 1.7 0.00 0.00 0.00 96 1011.6
20260905074137 77 167 0.0 0.9 0.00 0.00 0.00 96 1011.8
20260905073633 77 193 0.0 0.9 0.00 0.00 0.00 96 1011.7
20260905073128 77 10 0.9 1.7 0.00 0.00 0.00 96 1011.8
20260905072627 77 137 0.0 0.9 0.00 0.00 0.00 96 1011.8
20260905072122 77 135 0.0 0.9 0.00 0.00 0.00 96 1011.9
20260905071619 77 250 0.0 0.9 0.00 0.00 0.00 95 1012.1
20260905071114 77 271 0.0 0.0 0.00 0.00 0.00 95 1012.2
20260905070610 77 211 0.0 0.0 0.00 0.00 0.00 95 1012.1
20260905070105 77 291 0.0 0.0 0.00 0.00 0.00 95 1012.2
20260905065603 77 291 0.0 0.0 0.00 0.00 0.00 94 1012.4
20260905065058 77 237 0.0 0.0 0.00 0.00 0.00 94 1012.2
20260905064553 77 56 0.0 1.7 0.00 0.00 0.00 94 1012.1
20260905064048 77 144 0.0 1.7 0.00 0.00 0.00 95 1012.2
20260905063547 77 137 0.0 0.9 0.00 0.00 0.00 95 1012.6
20260905063044 77 13 0.0 0.0 0.00 0.00 0.00 95 1012.4
20260905062538 77 36 0.0 0.0 0.00 0.00 0.00 95 1012.3
20260905062033 77 91 0.0 0.0 0.00 0.00 0.00 94 1012.3
20260905061528 77 223 0.0 0.0 0.00 0.00 0.00 94 1012.4
20260905061027 77 223 0.0 0.9 0.00 0.00 0.00 94 1012.5
20260905060523 77 144 0.0 0.9 0.00 0.00 0.00 94 1012.6
20260905060019 77 77 0.0 1.7 0.00 0.00 0.00 94 1012.5
20260905055517 77 317 0.9 1.7 0.00 0.00 0.00 94 1012.7
20260905055012 77 308 0.0 1.7 0.00 0.00 0.00 94 1012.5
20260905054508 77 299 0.0 2.6 0.00 0.00 0.00 94 1012.6
20260905054003 77 144 0.0 0.9 0.00 0.00 0.00 94 1012.7
20260905053457 77 100 0.0 1.7 0.00 0.00 0.00 93 1012.7
20260905052953 77 190 0.0 0.9 0.00 0.00 0.00 93 1012.8
20260905052453 78 315 0.0 0.0 0.00 0.00 0.00 93 1013.0
20260905051952 78 144 0.0 1.7 0.00 0.00 0.00 93 1012.8
20260905051447 78 172 0.0 2.6 0.00 0.00 0.00 93 1012.7
20260905050945 78 305 0.0 0.0 0.00 0.00 0.00 93 1012.9
20260905050440 78 80 1.7 1.7 0.00 0.00 0.00 93 1013.3
20260905045936 78 249 0.0 1.7 0.00 0.00 0.00 93 1013.3
20260905045431 78 325 0.0 0.9 0.00 0.00 0.00 93 1013.1
20260905044927 78 134 0.0 0.0 0.00 0.00 0.00 93 1013.1
20260905044421 78 86 0.0 1.7 0.00 0.00 0.00 93 1013.0
20260905043921 78 186 0.0 0.0 0.00 0.00 0.00 93 1013.3
20260905043420 78 306 0.0 0.9 0.00 0.00 0.00 93 1012.8
20260905042915 78 87 0.9 0.9 0.00 0.00 0.00 93 1013.0
20260905042410 78 198 0.0 1.7 0.00 0.00 0.00 93 1013.0
20260905041905 78 125 0.0 2.6 0.00 0.00 0.00 92 1013.0
20260905041401 78 54 0.0 1.7 0.00 0.00 0.00 92 1013.2
20260905040855 78 170 0.9 1.7 0.00 0.00 0.00 93 1013.2
20260905040355 78 322 1.7 3.5 0.00 0.00 0.00 93 1013.2
20260905035854 78 91 1.7 1.7 0.00 0.06 0.06 94 1013.2
20260905035349 78 110 0.0 2.6 0.00 0.06 0.06 94 1013.0
20260905034846 78 21 0.0 0.9 0.00 0.06 0.06 94 1012.8
20260905034342 78 102 0.0 0.9 0.00 0.06 0.06 94 1012.9
20260905033840 78 308 0.0 0.0 0.00 0.06 0.06 94 1013.0
20260905033336 78 10 0.0 0.9 0.00 0.06 0.06 94 1013.1
20260905032835 78 205 0.0 0.0 0.00 0.06 0.06 94 1013.0
20260905032330 78 6 0.0 0.0 0.00 0.06 0.06 94 1013.2
20260905031825 78 20 0.0 0.0 0.00 0.06 0.06 94 1012.9
20260905031321 78 236 0.0 0.9 0.00 0.06 0.06 94 1013.0
20260905030816 78 44 0.0 0.0 0.00 0.06 0.06 94 1013.4
20260905030312 78 296 0.0 0.0 0.00 0.06 0.06 93 1013.3
20260905025811 78 69 0.9 1.7 0.00 0.06 0.06 93 1013.5
20260905025307 78 287 0.0 0.9 0.00 0.06 0.06 93 1013.4
20260905024803 78 248 0.0 1.7 0.00 0.06 0.06 93 1013.4
20260905024258 79 123 0.0 0.9 0.00 0.06 0.06 93 1013.4
20260905023753 79 210 0.0 0.9 0.00 0.06 0.06 93 1013.5
20260905023248 79 272 0.9 1.7 0.00 0.06 0.06 92 1013.6
20260905022747 79 310 0.0 1.7 0.00 0.06 0.06 92 1013.7
20260905022243 79 297 0.0 2.6 0.00 0.06 0.06 94 1013.8
20260905021742 79 278 0.0 2.6 0.00 0.06 0.06 94 1014.1
20260905021237 79 171 1.7 3.5 0.00 0.06 0.06 94 1013.7
20260905020732 79 214 1.7 2.6 0.00 0.06 0.06 94 1013.8
20260905020227 79 266 1.7 1.7 0.00 0.06 0.06 95 1013.8
20260905015726 79 5 1.7 2.6 0.00 0.06 0.06 96 1013.7
20260905015221 79 227 0.0 0.0 0.00 0.06 0.06 96 1013.7
20260905014719 79 35 0.9 1.7 0.00 0.06 0.06 96 1013.5
20260905014215 79 94 0.0 0.9 0.00 0.06 0.06 96 1013.5
20260905013711 79 120 0.0 0.9 0.00 0.06 0.06 96 1013.3
20260905013207 79 303 0.0 0.0 0.00 0.06 0.06 96 1013.5
20260905012702 79 127 0.0 0.0 0.00 0.06 0.06 96 1013.6
20260905012158 79 177 0.0 0.9 0.00 0.06 0.06 96 1013.7
20260905011654 79 87 0.0 0.9 0.00 0.06 0.06 96 1013.4
20260905011150 79 311 0.0 0.0 0.00 0.06 0.06 96 1013.3
20260905010644 79 19 0.0 0.0 0.00 0.06 0.06 96 1013.4
20260905010140 79 98 0.0 0.9 0.00 0.06 0.06 96 1013.4
20260905005636 79 139 0.9 0.9 0.00 0.06 0.06 95 1013.2
20260905005131 79 201 0.0 0.9 0.00 0.06 0.06 96 1013.1
20260905004631 79 278 0.0 0.0 0.00 0.06 0.06 96 1013.1
20260905004126 79 111 0.0 0.9 0.00 0.06 0.06 96 1013.1
20260905003622 79 264 0.0 0.0 0.00 0.06 0.06 95 1013.2
20260905003118 79 308 0.0 0.0 0.00 0.06 0.06 95 1013.1
20260905002613 79 273 0.0 0.9 0.00 0.06 0.06 95 1013.2
20260905002107 79 134 0.0 0.0 0.00 0.06 0.06 95 1013.6
20260905001557 79 134 0.0 0.9 0.00 0.06 0.06 94 1013.2
20260905001056 79 127 0.0 0.0 0.00 0.06 0.06 95 1013.3
20260905000552 79 56 0.0 0.0 0.00 0.06 0.06 95 1013.3
20260905000048 79 116 0.0 0.0 0.00 0.06 0.06 94 1013.0
20260904235543 79 286 0.0 0.9 0.00 0.06 0.06 94 1012.9
20260904235042 79 206 0.0 0.0 0.00 0.06 0.06 95 1013.0
20260904234542 79 15 0.0 0.0 0.00 0.06 0.06 95 1013.0
20260904234038 79 15 0.0 0.9 0.00 0.06 0.06 94 1012.8
20260904233533 80 94 1.7 1.7 0.00 0.06 0.06 94 1013.2
20260904233029 80 100 1.7 2.6 0.00 0.06 0.06 94 1013.2
20260904232526 80 69 0.9 1.7 0.00 0.06 0.06 94 1013.1
20260904232022 80 181 0.0 0.9 0.00 0.06 0.06 94 1013.3
20260904231518 80 78 0.9 0.9 0.00 0.06 0.06 94 1013.4
20260904231012 80 320 1.7 2.6 0.00 0.06 0.06 94 1013.2
20260904230511 80 223 0.0 0.0 0.00 0.06 0.06 94 1013.2
20260904230007 80 127 0.9 1.7 0.00 0.06 0.06 93 1013.2
20260904225504 80 100 0.0 0.0 0.00 0.06 0.06 93 1013.0
20260904225004 80 254 0.0 1.7 0.00 0.06 0.06 93 1013.1
20260904224500 81 298 1.7 2.6 0.00 0.06 0.06 93 1013.0
20260904223959 80 3 0.0 0.0 0.00 0.06 0.06 93 1012.9
20260904223458 80 34 0.0 1.7 0.02 0.06 0.06 92 1012.8
20260904222954 80 254 0.9 1.7 0.02 0.06 0.06 92 1012.8
20260904222449 80 176 0.0 1.7 0.02 0.05 0.05 92 1013.1
20260904221944 80 295 4.3 4.3 0.05 0.05 0.05 91 1013.1
20260904221438 81 265 1.7 6.1 0.07 0.05 0.05 90 1013.1
20260904220934 83 264 1.7 5.2 0.05 0.04 0.04 87 1013.2
20260904220434 83 290 0.0 0.9 0.00 0.04 0.04 87 1013.0
20260904215929 84 168 0.0 1.7 0.00 0.04 0.04 86 1012.7
20260904215424 84 67 0.9 3.5 0.00 0.04 0.04 85 1012.6
20260904214920 84 149 0.9 2.6 0.00 0.04 0.04 86 1012.6
20260904214416 84 114 2.6 4.3 0.00 0.04 0.04 85 1012.6
20260904213915 84 303 0.0 0.0 0.00 0.04 0.04 87 1012.7
20260904213409 84 218 0.9 2.6 0.00 0.04 0.04 85 1012.6
20260904212905 84 144 0.0 2.6 0.00 0.04 0.04 85 1012.8
20260904212404 84 164 0.0 2.6 0.00 0.04 0.04 85 1012.6
20260904211900 84 97 0.0 0.0 0.00 0.04 0.04 87 1012.8
20260904211355 84 98 1.7 2.6 0.00 0.04 0.04 87 1012.7
20260904210850 84 118 1.7 2.6 0.00 0.04 0.04 86 1012.8
20260904210349 83 46 0.0 1.7 0.00 0.04 0.04 87 1012.9
20260904205846 83 93 3.5 4.3 0.00 0.04 0.04 86 1013.0
20260904205341 83 105 2.6 3.5 0.00 0.04 0.04 89 1012.9
20260904204838 83 212 1.7 2.6 0.00 0.04 0.04 89 1012.7
20260904204333 82 10 0.9 1.7 0.00 0.04 0.04 90 1012.7
20260904203830 82 246 0.0 0.0 0.00 0.04 0.04 91 1012.4
20260904203326 82 155 0.0 0.9 0.00 0.04 0.04 91 1012.5
20260904202821 82 146 0.0 0.9 0.02 0.04 0.04 91 1012.3
20260904202317 81 158 0.0 1.7 0.05 0.04 0.04 90 1012.6
20260904201813 81 43 0.0 1.7 0.05 0.03 0.03 91 1012.4
20260904201313 81 248 0.9 2.6 0.05 0.03 0.03 89 1012.7
20260904200808 81 139 0.0 1.7 0.02 0.02 0.02 88 1012.6
20260904200301 82 302 0.0 2.6 0.00 0.02 0.02 87 1012.8
20260904195801 82 21 1.7 2.6 0.00 0.02 0.02 86 1013.2
20260904195300 83 248 1.7 3.5 0.00 0.02 0.02 86 1013.4
20260904194755 83 3 0.0 1.7 0.00 0.02 0.02 87 1013.6
20260904194254 83 292 1.7 1.7 0.00 0.02 0.02 86 1013.4
20260904193749 83 277 0.0 0.9 0.00 0.02 0.02 86 1013.7
20260904193245 84 250 0.0 1.7 0.00 0.02 0.02 85 1013.3
20260904192740 84 146 0.9 1.7 0.00 0.02 0.02 83 1013.5
20260904192235 84 9 0.0 1.7 0.00 0.02 0.02 82 1013.5
20260904191732 84 13 0.0 1.7 0.00 0.02 0.02 81 1013.1
20260904191228 83 230 0.0 0.9 0.00 0.02 0.02 84 1013.1
20260904190725 82 195 0.0 0.9 0.00 0.02 0.02 84 1013.2
20260904190220 82 133 0.9 1.7 0.02 0.02 0.02 84 1013.6
20260904185717 82 9 0.9 1.7 0.09 0.02 0.02 82 1013.7
20260904185217 83 16 0.0 2.6 0.09 0.02 0.02 84 1013.3
20260904184715 84 67 1.7 4.3 0.02 0.00 0.00 80 1013.4
20260904184211 85 108 2.6 3.5 0.00 0.00 0.00 78 1013.3
20260904183707 86 37 0.0 2.6 0.00 0.00 0.00 77 1013.2
20260904183201 86 250 0.0 2.6 0.00 0.00 0.00 76 1013.2
20260904182656 87 144 0.9 3.5 0.00 0.00 0.00 72 1013.5
20260904182151 88 29 2.6 5.2 0.00 0.00 0.00 71 1013.5
20260904181647 88 4 2.6 7.8 0.00 0.00 0.00 72 1013.3
20260904181141 88 342 1.7 3.5 0.00 0.00 0.00 74 1013.5
20260904180637 88 36 2.6 4.3 0.00 0.00 0.00 74 1013.5
20260904180126 89 330 1.7 7.0 0.00 0.00 0.00 74 1013.3
20260904175625 90 58 0.9 7.0 0.00 0.00 0.00 73 1013.4
20260904175124 90 76 4.3 7.8 0.00 0.00 0.00 72 1013.5
20260904174619 92 21 2.6 3.5 0.00 0.00 0.00 69 1013.7
20260904174115 90 87 1.7 2.6 0.00 0.00 0.00 72 1013.7
20260904173615 90 4 0.0 3.5 0.00 0.00 0.00 71 1013.5
20260904173111 91 337 1.7 1.7 0.00 0.00 0.00 65 1013.7
20260904172607 92 250 0.0 3.5 0.00 0.00 0.00 65 1013.6
20260904172106 92 164 0.9 2.6 0.00 0.00 0.00 65 1013.8
20260904171601 91 250 0.0 2.6 0.00 0.00 0.00 65 1013.8
20260904171056 90 220 0.0 1.7 0.00 0.00 0.00 66 1014.0
20260904170552 90 173 0.0 2.6 0.00 0.00 0.00 67 1014.2
20260904170048 90 339 0.9 1.7 0.00 0.00 0.00 68 1014.1
20260904165547 88 182 0.0 1.7 0.00 0.00 0.00 71 1014.1
20260904165046 88 68 0.9 2.6 0.00 0.00 0.00 71 1014.2
20260904164542 88 119 1.7 1.7 0.00 0.00 0.00 70 1014.4
20260904164037 89 277 0.9 3.5 0.00 0.00 0.00 70 1014.4
20260904163537 89 261 1.7 2.6 0.00 0.00 0.00 69 1014.3
20260904163032 91 20 0.0 1.7 0.00 0.00 0.00 66 1014.5
20260904162527 92 329 0.0 3.5 0.00 0.00 0.00 64 1014.4
20260904162022 91 352 0.9 2.6 0.00 0.00 0.00 65 1014.5
20260904161517 90 57 0.0 4.3 0.00 0.00 0.00 67 1014.5
20260904161012 91 291 0.9 2.6 0.00 0.00 0.00 65 1014.7
20260904160507 92 97 2.6 4.3 0.00 0.00 0.00 62 1015.0
20260904160004 92 264 0.9 3.5 0.00 0.00 0.00 65 1014.9
20260904155503 89 334 0.9 1.7 0.00 0.00 0.00 71 1014.9
20260904155001 88 69 0.0 2.6 0.00 0.00 0.00 71 1014.9
20260904154456 88 288 2.6 3.5 0.00 0.00 0.00 71 1015.1
20260904153951 88 322 0.9 1.7 0.00 0.00 0.00 73 1014.8
20260904153445 88 153 0.9 2.6 0.00 0.00 0.00 74 1014.9
20260904152942 87 308 1.7 1.7 0.00 0.00 0.00 75 1014.6
20260904152438 87 38 0.0 3.5 0.00 0.00 0.00 75 1014.7
20260904151938 86 194 0.0 1.7 0.00 0.00 0.00 76 1014.6
20260904151433 86 176 0.0 2.6 0.00 0.00 0.00 76 1014.4
20260904150927 87 302 0.0 1.7 0.00 0.00 0.00 75 1014.7
20260904150422 86 204 1.7 2.6 0.00 0.00 0.00 76 1014.7
20260904145920 86 46 0.9 2.6 0.00 0.00 0.00 76 1014.7
20260904145416 86 234 0.0 2.6 0.00 0.00 0.00 77 1014.6
20260904144912 86 13 0.0 1.7 0.00 0.00 0.00 75 1014.7
20260904144407 86 267 2.6 2.6 0.00 0.00 0.00 76 1014.7
20260904143903 86 69 1.7 2.6 0.00 0.00 0.00 76 1014.6
20260904143359 86 235 0.0 3.5 0.00 0.00 0.00 78 1014.5
20260904142856 86 199 0.0 1.7 0.00 0.00 0.00 80 1014.4
20260904142352 86 287 0.0 3.5 0.00 0.00 0.00 78 1014.5
20260904141851 85 295 0.9 4.3 0.00 0.00 0.00 79 1014.5
20260904141346 85 259 0.9 2.6 0.00 0.00 0.00 79 1014.3
20260904140843 85 306 1.7 3.5 0.00 0.00 0.00 79 1014.4
20260904140337 84 185 0.9 1.7 0.00 0.00 0.00 80 1014.4
20260904135836 84 258 1.7 3.5 0.00 0.00 0.00 81 1014.4
20260904135331 84 239 0.9 3.5 0.00 0.00 0.00 80 1014.5
20260904134827 84 107 2.6 4.3 0.00 0.00 0.00 80 1014.4
20260904134322 84 61 0.0 1.7 0.00 0.00 0.00 82 1014.4
20260904133822 84 317 0.0 2.6 0.00 0.00 0.00 83 1014.3
20260904133318 84 86 1.7 2.6 0.00 0.00 0.00 84 1014.2
20260904132817 83 298 1.7 2.6 0.00 0.00 0.00 84 1014.3
20260904132312 83 138 1.7 4.3 0.00 0.00 0.00 83 1014.3
20260904131812 83 274 0.0 1.7 0.00 0.00 0.00 85 1014.2
20260904131308 83 283 0.0 1.7 0.00 0.00 0.00 85 1014.4
20260904130808 83 58 0.0 1.7 0.00 0.00 0.00 85 1014.3
20260904130307 83 90 0.9 3.5 0.00 0.00 0.00 86 1014.6
20260904125803 83 303 0.0 1.7 0.00 0.00 0.00 87 1014.5
20260904125259 82 227 0.0 1.7 0.00 0.00 0.00 88 1014.7
20260904124753 82 296 0.0 2.6 0.00 0.00 0.00 89 1014.5
20260904124249 82 114 0.9 1.7 0.00 0.00 0.00 90 1014.2
20260904123749 82 161 0.0 2.6 0.00 0.00 0.00 90 1014.2
20260904123239 82 356 0.0 1.7 0.00 0.00 0.00 91 1014.4
20260904122734 81 98 0.0 1.7 0.00 0.00 0.00 91 1014.1
20260904122228 81 300 0.0 1.7 0.00 0.00 0.00 94 1014.0
20260904121724 80 190 0.0 1.7 0.00 0.00 0.00 97 1014.0
20260904121219 79 161 0.9 2.6 0.00 0.00 0.00 98 1014.1
20260904120715 79 218 0.0 1.7 0.00 0.00 0.00 98 1014.1
20260904120211 78 87 0.0 0.9 0.00 0.00 0.00 98 1014.2
20260904115706 78 31 0.0 0.9 0.00 0.00 0.00 98 1013.9